Regional Weather Roundup
Issued by NWS Green Bay, WI

Home | Current Version | Previous Version | Text Only | Print | Product List | Glossary On
Versions: 1 2 3 4 5 6 7 8 9 10 11 12 13 14 15 16 17 18 19 20 21 22 23 24 25 26 27 28 29 30 31 32 33 34 35 36 37 38 39 40 41 42 43 44 45 46 47 48 49 50
000
ASUS43 KGRB 280911
RWRGRB

NORTH-CENTRAL AND NORTHEAST WISCONSIN REGIONAL WEATHER ROUNDUP
NATIONAL WEATHER SERVICE GREEN BAY WI
400 AM CDT FRI AUG 28 2015

WIZ005-009-010>012-018-019-281000-
NORTH CENTRAL WISCONSIN

CITY           SKY/WX    TMP DP  RH WIND       PRES   REMARKS
IRONWOOD       CLOUDY    64  59  82 SW6       29.99R
MANITOWISH WTR CLOUDY    59  59  99 S3        30.04F
ARBOR VITAE    MOCLDY    62  59  91 SW6       30.06S
EAGLE RIVER    MOCLDY    59  58  94 CALM      30.06S
LAND O LAKES   MOCLDY    58  57  95 CALM      30.06F
RHINELANDER    PTCLDY    60  56  86 S6        30.06F
PHILLIPS       CLEAR     58  57  96 CALM      30.04S
ANTIGO         MOCLDY    56  55  98 SW5       30.08S
TOMAHAWK       MOCLDY    58  56  92 CALM      30.06F
MERRILL        MOCLDY    57  57  99 SW3       30.07F
$$

WIZ013-073-281000-
NORTHEAST WISCONSIN

CITY           SKY/WX    TMP DP  RH WIND       PRES   REMARKS
IRON MOUNTAIN  MOCLDY    55  54  96 E3        30.05S
MARINETTE      CLOUDY    61  55  82 SW7       30.08R
OCONTO         PTCLDY    57  57 100 CALM      30.08S
$$

WIZ017-030-035>037-045-281000-
CENTRAL WISCONSIN

CITY           SKY/WX    TMP DP  RH WIND       PRES   REMARKS
MEDFORD        MOCLDY    59  57  94 SW7       30.08R
WAUSAU         MOCLDY    60  57  89 CALM      30.06S
MOSINEE        MOCLDY    55  55 100 S7        30.09S
MARSHFIELD     MOCLDY    58  54  86 SW5       30.08R
WISC RAPIDS    MOCLDY    59  55  87 SW5       30.09S
STEVENS POINT  MOCLDY    57  55  95 S7        30.09S
WAUPACA        MOCLDY    60  58  96 CALM      30.09S
SHAWANO        MOCLDY    60  57  90 CALM      30.09S
CLINTONVILLE   MOCLDY    55  54  94 CALM      30.08S
WAUTOMA        MOCLDY    54  54 100 CALM      30.10S
$$

WIZ038-039-048-051-281000-
FOX VALLEY

CITY           SKY/WX    TMP DP  RH WIND       PRES   REMARKS
NWS GREEN BAY  MOCLDY    57  55  93 S5        30.09S
APPLETON       MOCLDY    57  54  88 S5        30.08S
OSHKOSH        PTCLDY    58  53  84 S7        30.09S
FOND DU LAC    MOCLDY    55  52  89 S6        30.10S
$$

WIZ022-050-052-281000-
EAST CENTRAL WISCONSIN

CITY           SKY/WX    TMP DP  RH WIND       PRES   REMARKS
EPHRAIM        CLOUDY    58  55  87 S3        30.09R
STURGEON BAY   CLEAR     57  52  82 S7        30.11F
MANITOWOC      PTCLDY    59  52  77 MISG      30.11S
SHEBOYGAN      MOCLDY    55  52  89 CALM      30.10F
$$

LMZ563-521-522-541>543-281000-
LAKESHORE

STATION/POSITION TIME  TEMP    WIND        PRES    VSBY  WAVE
                       AIR SEA DIR/SP/G                  HT/PER
                 (UTC) (F)     (DEG/KT/KT) (MB)    (MI)  (FT/S)
SHEBOYGAN LKSHOR 0900   56     190/  7/  8 1019.8F
KEWAUNEE LKSHORE 0800   60     210/  6/ 10 1018.2F
ALGOMA MARINA    0844          150/  1/  3   N/A
NORTHPORT PIER   0900   60     190/  4/ 11 1018.6R
N MID LAKE BUOY  0850   63 64  210/ 17/ 21 1018.4R         3/ 4
S GREEN BAY BUOY 0900   63     190/ 12/ 14 1020.0F
SISTER BAY LKSHO 0849   61     190/  7/  9   N/A
CHAMBERS ISLAND  0800   61     180/  4/ 10 1018.3S
MENOMINEE LKSHOR 0800   62     200/  8/ 12 1017.3R
$$



USA.gov is the U.S. government's official web portal to all federal, state and local government web resources and services.